Location: L�beck
(53.8752°N, 10.6787°E)
Time: 09:25:14
(UTC+01:00)

OTV 5 (USA 277) - Visible Passes

Search period start: 22 January 2018 00:00
Search period end: 01 February 2018 00:00
Orbit: 404 x 417 km, 43.0° (Epoch: 07 September)

Date Brightness Start Highest point End Pass type
(mag) Time Alt. Az. Time Alt. Az. Time Alt. Az.
27 Jan ? 19:07:57 10° SSW 19:09:24 13° S 19:09:24 13° S visible
28 Jan ? 18:17:23 10° SSW 18:18:42 12° S 18:20:02 10° SE visible
29 Jan ? 19:02:34 10° SSW 19:04:17 13° S 19:04:55 13° S visible
30 Jan ? 18:11:41 10° SSW 18:13:26 13° S 18:15:09 10° SSE visible
31 Jan ? 18:57:46 10° SSW 18:59:00 12° SSW 19:00:14 10° S visible
